Location: Kirkland Lake
(48.1510°N, 80.0330°W)
Time: 08:39:08
(UTC-04:00)

ISS - Pass Details

Date: 22 April 2026
Orbit: 414 x 424 km, 51.6° (Epoch: 18 May)

Event Time Altitude Azimuth Distance (km) Brightness Sun altitude
Exits shadow 04:07:48 18° 142° (SE) 1,105 -1.7 -18.9°
Maximum altitude 04:07:59 18° 138° (SE) 1,102 -1.7 -18.9°
Drops below altitude 10° 04:10:21 10° 93° (E) 1,502 -0.4 -18.6°
Sets 04:12:54 0° 74° (ENE) 2,373 1.1 -18.3°
